Location: Marsån
(66.4167°N, 22.2833°E)
Time: 10:11:27
(UTC+00:00)

SL-08 R/B - Pass Details

Date: 24 February 2024
Orbit: 947 x 992 km, 83.0° (Epoch: 15 April)

Event Time Altitude Azimuth Distance (km) Brightness Sun altitude
Rises 20:19:39 0° 342° (NNW) 3,667 8.5 -28.0°
Reaches altitude 10° 20:22:09 10° 342° (NNW) 2,724 7.7 -28.1°
Maximum altitude 20:28:25 86° 256° (WSW) 989 4.4 -28.5°
Enters shadow 20:28:51 78° 186° (S) 1,005 4.3 -28.5°
